Lapse_Rate
-0.6 -0.8 -0.9 -1.0 -1.0 -1.2 -1.5 -1.7 -1.8 -1.9 -2.3 -2.9 -3.6 -4.0 -4.3 -4.8 -4.1 1.6 7.0 7.0 5.0 0.3 3.0 9.1 9.4 9.3 9.3 8.6 8.7 8.6 6.5 6.5 6.5 6.5 6.5 7.4 6.6 7.9 8.4 7.8 8.0 8.3 8.2 9.0 9.5
-0.4 -0.6 -0.7 -0.8 -0.9 -1.2 -1.5 -1.8 -2.0 -2.2 -2.3 -2.5 -2.9 -3.4 -3.8 -4.4 2.5 7.2 8.0 1.3 0.3 1.0 7.8 8.7 8.5 8.8 8.3 8.0 8.1 7.0 6.5 6.5 6.5 6.5 6.5 7.0 7.1 7.4 7.3 7.4 7.4 7.9 8.7 9.2 9.4
-0.2 -0.4 -0.5 -0.6 -1.0 -1.3 -1.6 -1.7 -2.0 -2.5 -2.8 -2.8 -2.7 -2.7 -3.0 -2.7 6.6 8.5 2.0 0.9 0.4 1.8 9.7 9.5 9.1 8.6 7.6 7.9 7.5 7.0 6.5 6.5 6.8 7.2 7.4 7.1 7.1 7.8 7.1 6.5 7.5 7.5 8.3 9.0 9.2
-0.0 -0.1 -0.3 -0.6 -0.8 -1.1 -1.4 -1.8 -2.5 -2.9 -2.9 -3.1 -3.0 -2.7 -2.5 4.4 6.5 8.9 1.5 0.8 1.6 8.0 9.5 9.0 8.7 7.7 6.8 6.5 7.6 6.5 7.0 7.0 7.2 7.5 7.3 6.7 7.6 7.0 7.3 7.4 8.4 8.6 8.8 9.0 8.9
-0.1 -0.3 -0.4 -0.5 -0.8 -1.1 -1.4 -2.1 -2.9 -3.2 -3.2 -3.2 -3.2 -2.6 2.7 8.2 8.2 6.6 2.0 2.1 5.4 9.4 9.1 8.6 8.0 7.7 6.5 6.8 7.1 6.5 6.5 7.3 7.5 7.5 7.5 7.6 7.0 6.8 7.2 8.2 8.7 8.8 8.8 8.9 9.0
-0.0 -0.4 -0.7 -0.8 -1.0 -1.3 -1.7 -2.5 -3.0 -3.3 -3.2 -3.1 -3.1 -2.5 6.2 7.0 9.4 9.0 7.5 6.8 9.4 9.3 9.1 9.0 8.2 8.4 7.4 6.9 6.6 7.1 7.0 7.0 7.4 7.3 7.4 6.8 6.9 7.3 7.6 8.4 8.3 8.5 8.6 8.9 8.9
-0.0 -0.5 -0.9 -1.1 -1.4 -1.5 -1.8 -2.3 -2.9 -2.8 -2.3 -2.1 -2.6 1.0 8.2 8.1 9.2 7.9 8.2 7.7 9.6 9.5 8.8 9.2 9.1 8.2 7.8 6.5 7.8 7.3 6.5 6.5 6.8 7.2 6.7 7.4 6.5 6.5 7.8 8.2 8.0 8.2 8.6 8.7 8.9
0.3 -0.2 -0.5 -1.0 -1.4 -1.6 -1.9 -2.5 -2.5 -1.4 -1.0 -1.5 -2.0 4.1 7.9 9.1 8.4 8.4 9.1 9.4 9.6 9.8 9.4 9.6 9.3 8.5 7.8 7.9 7.2 6.5 6.5 6.5 6.5 6.7 7.1 7.0 6.5 6.4 8.0 7.9 7.7 8.0 8.4 8.5 8.7
0.2 -0.0 -0.2 -0.4 -1.2 -1.7 -1.7 -2.1 -1.1 -0.2 -0.3 -0.2 4.6 7.5 7.4 4.7 7.8 8.7 9.7 9.0 9.3 9.5 9.4 9.3 9.0 7.9 7.7 6.5 6.5 6.5 6.5 6.5 6.5 6.8 6.5 6.5 6.5 6.7 8.0 7.8 7.5 7.9 8.2 8.5 8.6
0.5 0.0 -0.3 -0.3 -1.0 -1.4 -1.7 -1.2 0.5 0.4 3.7 5.4 7.2 7.8 8.3 7.9 9.0 9.3 9.9 9.4 8.8 8.8 8.3 8.2 7.9 6.5 6.5 6.5 6.5 6.5 6.5 6.5 6.5 6.5 6.5 6.5 6.5 6.5 7.6 7.6 7.5 7.8 8.1 8.3 8.5
0.9 0.5 -0.2 -0.1 -0.8 -1.0 2.1 9.6 8.4 8.2 8.8 8.0 8.0 8.0 8.3 9.1 9.5 8.9 9.2 9.0 8.9 8.1 6.5 7.4 6.5 6.5 6.5 6.5 6.5 6.5 6.5 6.5 6.5 6.5 6.5 6.5 6.5 6.5 7.2 7.5 7.4 7.6 7.9 8.2 8.4
0.9 0.7 0.1 -0.3 -0.8 0.2 6.8 8.8 8.5 8.2 7.4 8.6 8.6 8.5 8.8 9.2 7.7 8.5 9.4 7.9 7.3 6.5 6.6 6.5 6.5 6.5 6.5 6.5 6.5 6.5 6.5 6.5 6.5 6.5 6.5 6.5 6.5 6.5 6.6 7.0 7.5 7.6 7.9 8.1 8.5
1.5 1.2 0.3 -0.5 -0.1 5.0 8.7 7.2 8.3 9.4 7.4 7.7 8.4 8.2 8.4 8.8 7.7 7.8 8.8 8.1 6.5 6.5 6.5 6.5 6.5 6.5 6.5 6.5 6.5 6.5 6.5 6.5 6.5 6.5 6.5 6.5 6.5 6.5 6.6 7.3 7.6 7.9 8.1 8.3 8.3
2.2 2.0 1.0 -0.8 4.3 7.7 9.0 9.6 7.8 8.9 6.5 6.5 6.9 7.8 8.3 8.4 6.9 8.9 9.0 8.0 6.7 6.5 6.5 6.5 6.6 6.5 6.5 6.5 6.5 6.5 6.5 6.5 6.5 6.5 6.5 6.5 6.5 6.5 6.5 6.5 6.6 7.5 8.0 8.2 8.3
2.5 2.3 1.4 0.2 7.0 9.0 9.1 7.1 6.6 9.0 6.5 6.5 6.8 9.1 8.4 7.3 7.4 7.6 9.1 8.1 6.5 6.5 6.5 6.5 6.5 6.5 6.5 6.5 6.5 6.5 6.5 6.5 6.5 6.5 6.5 6.5 6.5 6.5 6.5 6.5 6.5 6.9 7.7 8.2 8.4
2.2 1.9 0.8 5.9 8.8 9.7 7.5 7.2 8.1 6.5 6.5 6.5 6.9 6.6 6.5 7.0 7.1 7.6 7.9 8.5 7.9 6.5 6.5 6.5 7.2 6.5 6.5 6.5 6.5 6.5 6.5 6.5 6.5 6.5 6.5 6.5 6.5 6.5 6.5 6.5 6.5 6.9 7.7 8.0 8.3
2.0 1.4 2.7 6.6 9.1 7.9 7.1 9.1 6.5 6.5 6.5 6.5 6.5 6.5 6.5 6.5 6.5 6.5 6.5 6.5 6.5 6.5 6.5 6.5 6.5 6.5 6.7 6.5 6.5 6.5 6.5 6.5 6.5 6.5 6.5 6.5 6.5 6.5 6.5 6.5 6.5 6.5 7.4 8.0 8.4
1.7 0.9 6.0 7.9 9.5 7.8 9.1 6.7 6.5 6.5 6.5 6.5 6.5 6.5 6.5 6.5 6.5 6.5 6.5 6.5 6.5 6.5 6.5 6.5 6.5 6.5 6.5 6.5 6.5 6.5 6.5 6.5 6.5 6.5 6.5 6.5 6.5 6.5 6.5 6.9 7.2 7.3 7.6 8.0 8.3
1.8 10.0 9.7 10.2 7.8 8.3 8.3 6.5 6.5 6.5 6.5 6.5 6.5 6.5 6.5 6.5 6.5 6.5 6.5 6.5 6.5 6.5 6.5 6.5 6.5 6.5 6.5 6.5 6.5 6.5 6.5 6.5 6.5 6.5 6.5 6.5 6.5 6.5 6.5 6.5 6.7 7.0 7.3 7.6 8.1
6.9 9.4 9.2 9.6 8.4 9.4 6.8 6.5 6.5 6.6 6.6 6.5 6.5 6.5 6.5 6.5 6.5 6.5 6.5 6.5 6.5 6.5 6.5 6.5 6.5 6.5 6.5 6.7 6.5 6.5 6.5 6.5 6.5 6.5 6.5 6.5 6.5 6.5 6.5 6.5 6.5 6.5 7.0 7.4 7.9
9.3 8.4 9.5 9.6 10.0 8.3 6.5 6.5 6.5 7.4 7.3 6.5 6.5 6.5 6.5 6.5 6.5 6.5 6.5 6.5 6.5 6.5 6.5 6.5 6.5 6.5 6.5 6.5 6.5 6.5 6.5 6.5 6.5 6.5 6.5 6.5 6.5 6.5 6.5 6.5 6.5 6.5 7.1 7.4 7.9
9.1 6.6 9.7 10.1 7.2 7.0 6.5 6.5 6.2 6.8 7.6 6.6 6.4 6.5 6.5 6.5 6.5 6.5 6.5 6.5 7.1 6.5 6.5 6.5 6.5 6.5 6.5 6.5 6.5 6.5 6.5 6.5 6.5 6.5 6.5 6.5 6.5 6.5 6.5 6.5 6.7 6.9 7.2 7.7 8.0
8.6 8.2 9.8 9.7 6.5 6.5 6.7 6.5 7.1 6.5 6.5 6.5 6.5 6.5 6.5 6.5 6.5 6.5 6.5 6.7 7.1 6.5 6.5 6.5 6.5 6.5 6.5 6.5 6.5 6.5 6.5 6.5 6.5 6.5 6.5 6.5 6.5 6.5 6.5 6.5 7.0 6.9 7.3 7.6 7.8
8.6 6.5 8.0 8.4 8.0 6.6 6.5 6.5 6.5 7.4 6.8 7.1 6.5 6.7 6.5 6.5 6.5 6.5 6.5 6.5 7.1 6.8 6.7 6.8 6.5 6.5 6.5 6.5 6.5 6.5 6.5 6.5 6.5 6.5 6.5 6.5 6.5 6.5 6.5 6.5 6.6 7.1 7.4 7.6 7.7
8.4 7.0 7.8 6.5 6.7 6.6 6.6 6.5 6.5 6.5 6.9 7.2 6.5 6.5 6.5 6.5 6.5 6.5 6.5 6.5 6.6 6.6 6.5 6.5 6.5 6.5 6.5 6.5 6.5 6.5 6.5 6.5 6.5 6.5 6.5 6.5 6.5 6.5 6.5 6.5 6.7 7.2 7.3 7.4 7.5
7.9 7.5 8.0 7.7 7.4 6.7 6.5 6.5 6.5 6.5 6.5 6.5 6.5 6.5 6.5 6.5 6.5 6.5 6.5 6.5 6.5 6.5 6.5 6.5 6.5 6.5 6.5 6.5 6.5 6.5 6.5 6.5 6.5 6.5 6.5 6.5 6.5 6.5 6.9 7.2 6.9 7.1 7.2 7.2 7.4
8.6 9.0 8.3 7.1 6.8 6.5 6.5 6.5 6.5 6.6 6.9 7.0 6.6 6.5 6.5 6.5 7.4 7.6 7.7 7.5 6.8 6.5 6.5 6.5 6.5 6.5 6.5 6.5 6.5 6.5 6.5 6.5 6.5 6.5 6.5 6.5 6.5 6.5 6.5 6.5 6.9 7.1 7.4 7.4 7.5
Wind_Speed
26 26 26 26 26 26 27 27 26 26 24 24 22 22 21 20 23 7 10 3 4 25 13 13 11 10 10 7 9 5 6 1 3 0 9 13 9 5 5 11 6 9 5 23 23
26 27 27 28 28 27 27 27 27 26 25 24 22 21 21 20 11 15 8 10 19 24 19 18 14 12 8 8 5 7 5 4 4 4 2 13 9 9 7 12 9 11 10 21 23
26 27 28 29 30 29 28 28 27 26 26 23 21 20 20 20 9 5 5 12 25 22 16 15 9 12 13 8 8 4 6 5 3 1 3 12 9 7 8 9 12 15 20 25 24
27 27 28 29 30 30 31 30 29 28 26 22 19 17 17 7 6 5 7 15 25 20 11 13 13 15 10 11 7 9 6 5 4 3 7 10 11 7 7 6 12 16 21 24 23
28 29 29 30 31 32 31 32 31 29 27 20 15 12 8 7 10 11 13 14 19 13 15 16 15 15 11 6 8 11 6 4 3 6 7 9 10 6 8 4 14 17 22 24 21
30 31 31 32 32 32 31 31 29 29 26 18 10 7 8 11 2 9 10 14 12 14 14 16 12 15 8 8 9 1 6 4 7 10 10 10 10 8 9 10 15 18 23 22 22
30 31 33 33 35 35 32 30 30 26 20 11 9 9 9 15 1 6 12 16 16 17 15 16 11 11 4 7 9 7 7 6 12 13 11 7 9 9 13 12 16 19 21 21 20
30 31 33 35 36 37 33 31 25 16 7 6 11 8 8 3 8 9 7 10 12 15 12 14 10 13 9 4 8 11 10 11 12 13 7 14 9 11 13 14 15 18 19 19 20
32 32 34 36 37 39 34 27 11 5 8 13 7 6 5 4 8 16 14 9 14 13 7 8 13 13 11 12 12 10 12 12 12 14 9 12 9 12 12 13 13 16 18 18 19
31 32 35 37 37 37 33 19 7 10 7 6 2 6 6 1 1 4 18 13 12 16 9 12 11 12 14 14 16 16 15 14 12 15 11 13 7 7 13 14 13 15 17 19 20
31 32 33 38 36 36 16 5 4 5 3 10 16 18 14 6 6 10 10 20 18 15 15 18 16 19 22 19 19 15 16 15 14 13 15 12 11 13 13 14 15 15 18 19 20
32 33 33 37 35 27 10 5 6 5 14 17 24 23 24 17 7 11 14 19 20 21 22 15 20 21 18 19 21 12 16 16 13 11 14 11 11 9 14 17 17 18 18 20 20
31 33 35 39 33 9 8 8 7 9 8 15 10 12 13 17 14 15 20 23 25 25 26 22 20 20 19 18 20 19 18 17 13 11 14 9 11 10 13 16 16 17 18 19 21
33 33 33 39 11 7 1 12 10 3 6 0 2 2 5 9 12 20 22 19 18 27 26 26 22 21 19 22 21 22 18 15 12 11 12 15 10 15 14 15 18 19 20 20 21
33 33 34 16 8 5 11 15 9 4 7 7 6 4 1 11 8 22 21 22 19 22 25 24 22 20 23 22 22 20 17 15 14 17 16 13 10 3 11 12 18 20 21 21 21
34 33 32 3 4 9 18 14 4 7 7 4 2 3 10 6 14 2 27 23 16 21 27 26 16 19 23 22 23 18 12 15 10 13 14 16 13 13 13 13 13 18 20 22 23
35 33 18 6 8 18 14 5 7 8 3 1 3 6 13 10 10 15 23 28 21 20 20 25 21 19 17 21 23 21 19 11 12 11 10 19 12 14 3 6 3 7 18 21 23
36 35 1 5 16 13 8 8 10 7 13 6 12 16 17 14 12 18 16 24 30 24 20 24 26 25 19 22 19 27 23 16 18 15 14 7 10 14 14 12 6 5 9 16 21
35 7 3 8 13 6 7 9 10 6 7 11 15 19 16 6 5 8 23 24 31 28 18 22 26 26 22 18 24 25 24 25 21 19 14 13 14 15 9 9 9 8 8 12 18
10 6 2 14 10 7 6 11 8 2 10 12 14 11 11 4 8 4 14 20 28 32 26 17 21 23 22 25 24 22 25 24 15 23 18 16 16 11 17 15 12 10 9 7 12
6 6 6 17 6 6 7 9 7 10 13 10 14 18 13 13 7 11 8 2 12 29 26 18 18 20 23 22 24 18 23 22 19 17 15 16 14 13 10 11 8 6 2 2 10
5 5 6 10 6 1 6 9 9 15 15 18 18 18 17 13 14 14 10 11 14 16 31 27 12 17 27 22 24 23 23 28 16 23 20 13 13 15 12 10 7 2 4 7 7
8 4 4 10 4 7 9 14 16 18 18 16 16 15 19 18 13 15 14 5 9 10 5 24 16 16 18 24 25 28 26 27 27 19 21 17 13 12 8 7 8 2 4 7 4
5 4 2 2 3 8 11 14 13 11 14 18 19 12 16 14 17 10 10 5 11 14 16 8 20 23 17 22 24 25 28 27 28 20 21 24 24 9 11 8 8 8 2 8 6
2 4 4 6 7 10 10 13 15 13 6 10 12 7 5 11 17 20 18 13 15 2 9 6 20 22 21 23 24 26 25 27 26 28 27 25 24 22 16 9 6 6 2 2 4
4 3 2 10 8 9 6 4 5 12 4 8 5 5 6 8 8 8 2 12 8 7 9 6 14 21 21 14 17 28 28 29 27 25 27 25 23 20 21 14 10 10 6 3 2
2 2 3 6 6 8 6 7 13 9 6 6 9 14 5 8 14 17 15 15 16 12 8 7 13 21 19 22 14 21 24 28 24 27 25 23 17 11 14 13 14 13 11 8 5
Wind_Direction
1 358 354 350 346 342 338 334 332 330 328 327 327 326 325 324 309 222 258 251 173 164 176 169 189 185 194 237 239 260 256 28 87 245 122 148 146 130 99 143 166 175 157 145 148
359 355 351 347 343 338 334 331 327 325 323 322 322 322 322 325 291 270 228 136 148 168 176 178 186 185 208 231 215 247 287 32 2 10 152 158 154 140 160 154 153 145 138 143 155
355 351 348 344 339 335 332 329 325 321 319 318 317 317 317 315 279 265 24 169 166 185 187 197 207 207 232 230 207 203 285 31 4 299 156 153 149 147 147 178 167 162 152 157 163
352 348 343 340 335 332 330 327 323 318 315 312 309 310 312 281 269 87 75 146 163 188 197 203 207 206 226 216 197 251 241 293 9 131 158 158 136 165 178 88 161 158 161 164 169
348 344 340 336 333 329 328 325 321 315 310 304 295 294 282 231 246 131 128 142 170 196 195 197 201 212 235 223 212 240 282 318 222 161 159 145 157 121 160 120 148 151 164 171 176
345 341 338 334 331 328 327 324 320 314 308 297 264 252 232 252 76 183 172 165 184 206 207 206 211 216 283 247 240 68 297 328 166 147 150 173 149 185 131 134 148 158 169 176 178
344 340 337 333 330 328 329 325 321 314 305 290 200 217 236 245 234 170 214 220 222 217 219 211 219 209 231 237 232 244 241 129 150 152 154 164 175 207 135 148 154 167 173 180 181
342 340 337 333 331 327 328 324 320 321 6 131 170 207 252 151 264 222 198 198 205 214 229 207 206 238 241 319 220 226 236 179 159 169 147 212 126 160 159 162 164 173 178 183 185
341 341 338 334 333 328 327 326 319 56 111 137 180 247 256 121 220 212 209 189 171 179 208 191 205 223 202 229 205 201 210 210 160 196 153 213 77 130 170 176 172 179 184 187 187
339 340 338 334 334 329 323 310 151 164 182 244 247 236 232 102 173 203 201 197 159 162 170 179 193 204 220 209 209 197 233 184 179 190 194 195 196 149 182 186 182 185 189 193 193
339 339 338 333 334 327 322 247 288 188 322 291 294 279 274 340 233 208 186 198 207 204 199 195 203 208 205 212 234 222 204 203 197 158 200 221 215 171 189 198 192 191 194 198 201
340 339 339 334 333 318 296 50 48 329 295 273 257 255 259 274 275 214 176 180 190 200 202 186 219 212 218 211 229 241 221 213 185 165 215 216 229 212 191 210 204 196 195 202 201
340 338 339 332 325 309 41 53 333 316 266 296 265 256 242 208 221 210 191 205 194 199 200 205 214 215 209 215 219 223 226 219 213 183 219 258 243 230 197 213 217 208 201 202 203
337 337 339 329 295 345 52 352 331 290 278 203 156 138 188 223 231 218 200 197 204 205 203 219 219 206 202 219 208 216 217 236 213 196 219 198 247 194 198 205 216 212 207 204 202
333 335 337 337 321 333 334 324 315 211 304 41 91 102 8 222 351 192 194 211 212 203 201 212 216 195 210 210 209 223 185 215 219 212 241 186 244 170 171 201 214 214 211 210 202
332 333 333 186 243 338 322 312 229 237 252 318 60 342 335 266 245 297 194 209 229 215 208 223 198 207 217 211 212 214 193 213 213 230 222 232 217 225 178 216 212 203 210 209 208
330 327 321 309 338 322 316 260 247 244 103 234 307 307 318 303 265 227 194 201 199 195 204 214 198 221 219 209 209 203 196 188 207 212 229 213 207 246 107 145 183 190 202 204 204
327 314 336 298 325 315 291 244 248 267 246 302 311 302 287 298 280 214 208 208 208 203 191 198 205 206 194 211 190 200 204 210 197 207 213 161 225 232 243 243 248 237 206 196 202
320 336 248 1 337 296 278 244 253 309 345 308 304 279 277 260 278 300 223 218 205 207 215 201 216 187 199 200 205 202 217 217 223 227 225 189 221 258 190 204 219 218 196 195 201
324 319 12 342 334 281 257 258 293 322 320 284 274 279 267 278 294 300 234 220 217 215 227 196 212 185 197 198 212 221 206 215 229 220 219 230 218 218 204 214 225 207 198 191 199
299 306 39 341 294 247 267 304 334 326 308 274 267 266 261 266 291 300 277 144 244 211 220 228 223 179 186 203 191 198 207 219 213 228 211 229 215 225 182 179 193 229 319 285 209
310 313 18 333 272 301 303 347 309 286 287 270 266 263 270 269 277 269 262 324 341 285 207 224 208 223 205 198 216 201 208 204 218 204 236 241 230 175 189 200 221 148 40 346 260
321 303 349 311 346 334 321 304 292 280 271 256 255 247 250 247 259 243 256 291 331 319 262 209 230 212 183 199 205 210 210 208 220 221 215 228 226 142 141 172 175 179 65 44 141
300 312 31 323 351 322 328 313 310 302 278 262 262 288 253 235 240 260 248 324 318 311 334 292 228 222 202 203 193 205 207 214 211 219 209 218 228 186 200 225 244 183 61 56 129
292 31 19 320 333 325 309 295 322 310 320 291 239 235 287 244 240 241 253 281 282 98 291 247 222 219 227 196 201 199 213 211 216 221 222 220 217 237 194 210 186 157 141 37 121
305 329 311 299 307 298 291 300 290 308 299 303 321 298 276 253 262 309 277 264 274 332 310 254 223 223 221 210 221 202 205 212 211 221 235 235 242 217 240 234 234 244 231 245 277
317 269 293 288 290 286 318 313 305 306 282 240 303 313 298 28 330 295 287 279 278 296 311 296 222 210 214 211 202 210 201 211 211 219 222 226 221 193 215 230 241 246 264 279 270